Content
SEND FEEDBACK

Daily
Averages
Monthly
Summary
Canada

VANCOUVER - CITY HALL, BRITISH COLUMBIA


Home > North America > Canada > British Columbia
Elevation: 283 feet     Latitude: 49 17N     Longitude: 123 07W

WEATHER
 
SELECT A DAY
Number of Records: 169,652;   Date Range: 4/23/95 - 7/23/14
 
SHARE

PRINT THIS DATA

[ ← Previous Day ]
WEATHER ALMANAC - MARCH 1, 2013
[ Next Day → ]
[ °C ]   °F
Weather ElementAverageHighLow
Temperature47.5 °F48.6 °F (6:00 pm)45 °F (1:00 am)
Dewpoint46.4 °F47.7 °F (7:00 pm)43.5 °F (1:00 am)
Humidity95.7 %97 % (7:00 pm)92 % (10:00 am)
Barometer30.24 in30.25 in (10:00 am)30.22 in (3:00 am)
Wind Speed2.8 mph4.6 mph (3:00 am)
Weather ElementAverage
Wind DirectionENE (74.2 °)

Weather ElementTotal
Precipitation1.53 in
Heating Degree Days18.2 (Base 65)
Averaged from 26 records on March 1, 2013
WEATHER CONDITIONS BREAKOUT
WIND DIRECTION BREAKOUT
WEATHER BY HOUR - MARCH 1, 2013
[ °C ]   °F
Local TimeTemperatureDewpointHumidityBarometerVisibilityWind DirectionWind SpeedGust SpeedPrecipitationEventsConditions
1:00 AM45.0 °F43.5 °F95 %30.24 inENE (70°)3.5 mph0.09 in
2:00 AM45.7 °F44.4 °F95 %30.24 inENE (70°)3.5 mph0.03 in
3:00 AM45.7 °F44.4 °F95 %30.22 inEast (80°)4.6 mph0.02 in
4:00 AM46.0 °F45.0 °F96 %30.22 inENE (60°)4.6 mph
4:00 AM46.2 °F45.1 °F96 %30.22 inENE (60°)4.6 mph0.02 in
6:00 AM47.1 °F46.0 °F96 %30.22 inEast (80°)3.5 mph0.06 in
7:00 AM47.1 °F46.0 °F96 %30.22 inEast (80°)3.5 mph0.03 in
8:00 AM47.5 °F46.4 °F96 %30.24 inEast (80°)2.3 mph0.02 in
9:00 AM47.5 °F46.4 °F96 %30.24 inENE (70°)4.6 mph0.02 in
10:00 AM48.0 °F46.0 °F92 %30.25 inENE (70°)3.5 mph
10:00 AM47.7 °F46.4 °F95 %30.25 inENE (70°)3.5 mph0.03 in
11:00 AM48.0 °F46.6 °F95 %30.24 inENE (70°)2.3 mph0.10 in
12:00 PM47.8 °F46.6 °F95 %30.25 inEast (80°)3.5 mph0.14 in
1:00 PM47.8 °F46.4 °F95 %30.25 inENE (70°)3.5 mph0.06 in
2:00 PM47.8 °F46.6 °F95 %30.25 inNE (40°)2.3 mph0.21 in
3:00 PM47.8 °F46.6 °F95 %30.24 inENE (60°)2.3 mph0.10 in
4:00 PM48.0 °F47.0 °F96 %30.24 inENE (70°)1.2 mph
4:00 PM48.4 °F47.1 °F95 %30.24 inENE (70°)1.2 mph0.11 in
5:00 PM48.4 °F47.3 °F96 %30.24 inEast (80°)2.3 mph0.12 in
6:00 PM48.6 °F47.5 °F96 %30.23 inEast (80°)2.3 mph0.10 in
7:00 PM48.6 °F47.7 °F97 %30.24 inEast (80°)2.3 mph0.08 in
8:00 PM48.6 °F47.7 °F97 %30.23 inEast (90°)2.3 mph0.06 in
9:00 PM48.4 °F47.5 °F97 %30.24 inEast (90°)2.3 mph0.04 in
10:00 PM48.0 °F47.0 °F96 %30.23 inEast (90°)1.2 mph
10:00 PM48.2 °F47.3 °F97 %30.23 inEast (90°)1.2 mph0.04 in
11:00 PM48.0 °F47.1 °F97 %30.24 inEast (80°)1.2 mph0.05 in
Hourly data recorded from CWWA, located miles away from Vancouver - City Hall, British Columbia







STORIES FROM OUR PARTNERS